Find Weili Kongjian

NORAD ID: 69585 Int'l Des: 2026-138 Owner: CENTI Country: CN Constellation: future-navigation operational
LEOCIRCULAR

当前视图

正在加载3D地球...

About Weili Kongjian

Weili Kongjian (NORAD 69585) is a future-navigation constellation satellite launched Jun 17, 2026 by CENTI of CN. It operates in LEO, CIRCULAR orbit with a mass of 140.00 kg.

关于 Weili Kongjian

正在加载描述...

即将过境

Passes for default location (London). Set your location on the main map for personalized predictions.

高度历史

Loading altitude history...

两行轨道根数

1 69585U 26138D 26169.41216859 -.00000101 00000-0 26394-4 0 9994
2 69585 55.1477 276.6254 0008654 281.1058 78.8943 14.15938331 191
Epoch: Jun 18, 2026 • Age: 10 hours

当前状态

高度 852.4 km
速度 7.43 km/s
星下点 -54.19°S, 32°W
发射日期 Jun 17, 2026
运行时间 1 day
类型 other

技术详情

分类 Payload
质量 140.00 kg
干质量 140.00 kg
总质量 140.00 kg
长度 1.00 m
直径 0.50 m
跨度 2.00 m
形状 Box + 2 pan
制造商 HITSAT
平台类型 WK01H
阶段状态 In Orbit
所有者/国家 CENTI/CN

Most Searched